Temperature
7 5 5 6 7 8 8 8 8 8 9 8 8 8 8 9 9 8 8 8 8 8 8 8 8 8 8 8 8 8 8 8 9 9 9 9 9 10 10 10 10 10 10 10
5 6 7 8 8 8 8 7 7 8 9 8 7 7 7 8 8 8 8 8 8 8 8 8 8 8 8 8 8 8 8 8 8 8 8 8 8 9 9 9 9 9 10 10
6 7 8 8 7 7 7 7 7 7 7 8 7 7 7 8 8 8 8 8 8 7 7 7 7 7 7 7 7 7 7 7 7 7 7 7 8 8 8 8 8 9 9 9
6 7 8 7 7 7 7 8 8 8 6 6 7 6 6 7 7 7 7 7 7 7 7 7 7 7 7 6 6 6 6 6 7 7 7 7 7 7 7 7 7 8 8 8
6 7 7 7 7 7 7 8 7 7 6 6 6 5 6 6 7 6 6 7 7 7 7 7 6 6 6 6 6 6 6 6 6 6 6 6 6 6 6 7 7 7 7 7
6 7 7 7 7 8 7 7 7 6 5 5 6 5 6 6 7 7 6 7 7 7 7 6 6 6 6 6 6 6 5 5 5 5 5 5 6 6 6 6 6 6 6 7
6 7 7 7 7 7 7 5 5 5 5 5 6 6 6 7 7 7 7 7 7 7 7 6 6 6 6 6 6 5 5 5 5 5 5 5 5 5 5 5 5 5 6 6
5 5 7 7 7 7 7 6 5 6 5 5 6 6 6 7 7 8 8 8 7 7 6 6 6 6 6 6 5 5 5 5 5 5 4 4 4 4 4 4 4 4 4 5
5 6 7 7 8 7 7 6 6 5 5 5 5 6 6 7 7 6 7 7 7 7 6 6 6 6 6 5 5 5 5 5 4 4 4 4 4 4 4 4 4 4 4 4
7 6 7 7 7 7 7 6 5 5 6 6 6 6 6 7 6 6 5 6 7 7 7 6 6 6 6 5 5 5 5 4 4 4 4 4 3 3 3 3 3 3 3 3
7 6 6 6 6 6 6 6 6 5 5 5 5 6 7 7 7 6 6 7 7 7 7 6 6 6 6 5 5 5 4 4 4 4 3 3 3 3 3 3 3 3 3 3
6 5 4 5 6 7 6 6 5 5 5 5 4 6 7 7 7 7 7 8 8 7 7 7 6 6 5 5 5 5 4 4 4 3 3 3 3 3 3 2 2 2 2 2
7 5 5 6 6 6 7 6 6 6 5 4 4 6 7 6 7 7 7 8 8 7 7 6 6 6 5 5 5 4 4 4 3 3 3 3 2 2 2 2 2 2 2 2
7 5 4 6 6 6 6 6 6 5 4 4 4 6 6 6 6 6 7 8 8 7 7 6 6 6 5 5 5 4 4 4 3 3 3 2 2 2 2 2 2 1 1 1
5 4 4 4 5 5 5 6 6 5 5 5 5 5 7 6 6 7 7 8 7 7 7 6 6 6 5 5 5 4 4 3 3 3 2 2 2 2 1 1 1 1 1 1
4 4 4 4 5 5 5 5 5 6 6 6 6 6 7 7 7 7 7 7 7 7 7 7 6 6 5 5 5 4 4 3 3 2 2 2 2 1 1 1 1 1 1 1
4 4 4 3 4 4 4 5 5 5 5 6 6 7 6 6 6 7 8 8 7 7 7 7 6 6 5 5 4 4 3 3 3 2 2 1 1 1 1 1 1 0 0 0
3 4 3 3 3 4 7 7 6 6 6 6 6 6 6 6 8 8 8 8 8 8 7 7 6 6 5 5 4 4 3 3 2 2 2 1 1 1 0 0 0 -0 -0 -0
3 4 3 3 3 4 6 6 7 6 6 6 6 6 7 7 7 7 8 8 8 7 7 6 6 5 5 4 4 3 3 3 2 2 1 1 1 0 0 -0 -0 -1 -1 -1
3 3 3 3 4 5 7 7 8 7 6 7 6 6 6 6 4 6 8 8 7 7 7 6 6 5 5 4 4 3 3 2 2 2 1 1 0 -0 -0 -1 -1 -1 -1 -1
3 3 3 3 3 4 5 7 7 7 7 8 8 8 7 6 7 8 8 7 7 6 6 6 5 5 4 4 3 3 3 2 2 1 1 0 0 -0 -1 -1 -1 -2 -2 -2
3 2 2 3 3 4 6 5 6 7 8 9 8 8 8 8 8 7 7 7 6 6 5 5 5 4 4 3 3 3 2 2 1 1 1 0 -0 -1 -1 -1 -2 -2 -2 -2
3 3 3 3 5 6 7 7 9 9 8 8 8 8 8 7 7 7 6 6 6 5 5 4 4 4 3 3 3 2 2 1 1 1 0 -0 -1 -1 -1 -2 -2 -2 -2 -3
3 3 3 2 4 5 7 8 8 8 8 8 8 7 7 7 7 6 6 6 5 5 4 4 4 3 3 3 2 2 1 1 1 0 -0 -1 -1 -1 -2 -2 -2 -3 -3 -3
3 3 2 3 4 5 7 8 8 8 8 7 7 7 7 6 6 6 5 5 5 4 4 3 3 3 3 2 2 1 1 1 0 -0 -1 -1 -1 -2 -2 -2 -3 -3 -4 -4
2 3 3 5 6 5 6 8 7 7 7 7 6 6 6 6 6 5 5 5 4 4 4 3 3 3 2 2 1 1 1 0 -0 -1 -1 -1 -2 -2 -2 -3 -3 -3 -4 -4
Wind_Speed
5 6 4 1 1 3 4 4 2 1 1 1 4 7 8 5 3 4 3 2 1 0 1 2 4 5 6 7 8 8 9 9 8 6 6 5 5 5 5 5 8 8 8 8
7 4 1 1 3 5 5 4 2 2 1 1 3 7 7 5 5 5 6 4 3 1 2 3 5 6 6 7 8 8 8 9 8 6 5 4 4 3 3 5 7 9 8 7
6 0 0 4 5 6 4 3 2 1 4 3 2 6 4 2 2 3 4 4 3 2 1 2 4 4 5 7 7 8 8 8 8 7 5 5 4 4 4 6 5 7 8 7
4 2 3 5 3 4 2 0 2 2 3 3 0 3 6 3 2 3 4 4 3 3 1 1 2 4 5 5 6 7 7 7 7 7 6 6 5 5 5 5 5 6 7 7
2 2 4 3 1 2 1 1 2 1 1 3 1 2 7 2 5 7 6 6 5 4 2 1 1 2 3 4 5 6 6 7 7 7 6 5 5 4 4 5 6 6 6 7
2 1 1 1 1 1 1 3 4 4 3 3 4 4 6 5 7 6 6 6 6 4 3 2 2 2 2 3 4 5 6 6 7 7 6 5 5 6 6 6 6 6 5 5
4 3 2 1 2 3 4 4 3 3 2 5 3 4 8 7 6 7 8 8 7 5 4 3 2 2 2 3 4 4 5 5 6 6 6 6 5 5 6 5 5 5 5 5
3 3 2 1 1 1 1 3 4 3 3 5 3 5 7 4 3 4 5 6 6 5 4 4 4 3 3 3 3 3 4 4 5 5 5 5 5 4 4 5 5 5 5 5
2 2 2 2 1 3 1 1 3 3 1 3 5 6 6 1 1 3 4 5 6 6 6 5 4 4 3 3 3 2 3 3 4 5 5 5 5 5 5 6 5 4 4 5
3 1 3 1 1 1 2 3 3 2 1 4 6 5 5 5 7 6 6 7 8 6 6 6 5 4 4 3 3 2 2 2 3 3 4 4 5 5 5 5 5 5 5 5
2 2 3 1 4 5 3 2 3 2 3 3 4 7 6 7 8 8 9 9 8 8 7 7 6 5 4 3 2 2 2 2 2 3 3 4 4 4 4 4 5 5 5 5
1 3 3 6 5 4 6 6 5 3 4 4 3 8 5 6 6 7 8 7 7 7 7 6 6 5 4 4 3 2 2 2 2 2 3 3 4 4 4 5 5 5 5 5
2 3 2 5 3 1 3 4 5 4 3 4 4 8 3 2 4 5 6 7 6 7 6 5 5 5 5 5 4 3 3 2 2 2 2 3 4 4 5 5 5 5 5 5
3 3 5 7 5 3 5 5 6 6 5 5 10 12 9 7 7 7 7 7 7 7 7 6 6 6 6 5 5 4 3 2 1 1 1 2 3 4 4 5 5 5 4 4
3 3 5 8 9 7 10 12 10 12 11 10 10 11 15 10 10 9 8 7 7 7 7 7 7 7 6 5 4 4 3 2 2 1 1 3 3 3 4 4 4 4 4 5
1 2 3 6 7 8 13 15 15 15 14 16 16 18 14 10 7 8 8 8 9 9 9 8 8 7 7 6 5 4 4 3 2 2 2 3 3 3 3 4 4 4 4 4
2 2 2 5 7 8 10 11 12 8 9 10 16 14 8 7 9 9 9 9 9 10 9 8 8 8 8 7 6 6 5 3 2 2 2 3 2 3 3 4 4 4 4 4
5 3 2 4 6 7 8 3 7 8 10 12 11 9 8 9 8 7 7 9 9 9 8 8 7 7 6 5 5 5 4 3 3 3 3 3 2 3 3 3 4 4 3 4
6 5 3 2 5 10 10 6 5 6 8 9 12 11 8 4 3 5 7 7 8 8 7 7 7 6 5 5 5 4 3 3 3 3 3 3 3 3 3 3 4 3 3 4
4 4 3 3 4 7 7 2 1 2 7 6 6 7 5 4 3 7 5 5 6 5 5 6 5 4 5 5 5 5 4 4 4 4 4 3 3 3 3 4 4 3 3 4
4 4 7 7 7 10 9 3 3 2 6 3 4 5 6 8 8 5 3 4 5 4 5 5 5 5 6 5 5 5 5 5 5 4 3 2 2 3 3 3 2 3 3 4
9 7 7 7 8 11 6 7 8 9 4 4 4 5 7 8 6 5 5 6 6 5 5 5 5 5 4 5 6 6 6 5 3 3 2 2 2 2 2 2 3 3 3 4
9 10 7 11 12 7 6 10 8 5 5 6 6 7 7 7 7 6 6 7 7 7 6 5 6 6 5 5 6 7 6 4 3 3 2 2 2 2 2 2 2 3 2 3
6 6 6 8 13 12 11 10 10 8 9 9 8 8 7 8 8 8 7 7 7 7 7 6 6 6 6 6 6 6 5 4 4 3 3 2 2 2 2 2 2 2 3 3
8 5 6 10 11 10 9 10 10 9 8 8 8 7 9 8 8 8 8 8 7 7 6 6 8 8 8 6 6 5 5 5 4 4 3 2 2 2 2 2 2 3 3 4
8 11 10 12 11 8 8 7 7 8 9 10 9 8 7 8 9 8 8 7 7 7 7 7 8 8 7 6 6 5 5 6 5 4 3 2 2 2 2 2 4 5 6 8
Wind_Direction
32 63 73 95 120 141 124 119 122 245 215 200 230 253 269 258 211 199 197 183 168 204 320 5 11 8 8 5 1 356 354 349 351 349 345 343 342 342 345 347 345 344 341 336
52 49 324 63 67 78 90 99 66 344 333 254 257 270 270 247 207 194 186 186 192 216 347 358 3 8 7 1 356 354 353 350 351 346 336 325 317 327 336 340 345 348 346 343
101 196 359 82 67 80 72 129 161 232 347 0 345 305 282 269 183 169 171 173 178 185 257 336 358 357 357 356 351 350 345 347 349 347 347 345 343 338 346 344 343 345 345 347
67 18 66 72 58 93 96 59 110 73 42 312 359 288 277 248 237 212 201 189 200 227 242 306 340 342 347 343 343 346 344 348 350 353 356 356 355 341 329 328 329 333 346 349
60 45 67 65 41 94 169 32 52 61 72 329 269 208 278 251 236 232 216 207 213 226 221 232 283 307 326 335 342 345 345 350 352 357 355 353 348 334 325 332 336 337 341 350
59 21 78 111 9 89 81 38 42 51 62 301 229 187 272 228 217 215 209 209 214 218 216 230 265 299 325 337 344 346 347 348 352 356 358 360 352 344 343 342 338 334 334 338
12 1 0 55 48 25 61 74 43 3 350 260 236 205 249 244 223 200 198 205 209 209 211 226 252 286 308 323 332 338 345 346 348 352 354 354 353 347 343 336 333 336 338 339
58 328 283 235 164 160 178 130 148 198 245 286 296 236 255 267 220 183 184 190 197 211 217 224 230 238 260 284 306 325 340 343 345 347 344 346 350 349 343 339 339 339 335 335
106 287 296 217 187 144 143 173 177 147 272 278 274 277 294 213 186 187 192 198 214 222 223 225 226 225 238 261 279 294 319 329 337 342 341 347 349 349 346 341 338 335 334 340
134 263 288 276 67 316 167 157 98 131 219 283 288 268 247 238 232 227 221 224 228 228 227 227 224 224 231 241 259 279 288 301 317 338 346 357 348 346 344 346 344 340 337 340
110 136 305 322 210 204 174 181 166 165 180 201 279 274 226 220 219 219 226 227 225 222 224 225 225 225 226 235 246 266 289 312 327 331 336 342 337 337 343 346 341 337 338 343
122 131 260 257 254 205 188 193 162 175 237 212 236 271 263 229 226 216 228 231 226 223 221 220 220 219 222 231 241 251 263 285 301 311 328 333 334 340 345 341 336 339 342 346
131 125 341 337 330 227 223 210 187 173 174 200 216 261 288 255 246 235 233 236 234 231 229 223 218 218 222 226 230 236 239 251 283 315 334 336 339 344 342 337 338 342 346 348
121 165 193 217 229 207 238 230 198 178 203 230 231 252 269 264 261 259 247 241 235 232 227 220 221 223 223 223 222 222 233 240 253 301 325 329 327 327 327 329 334 337 341 346
120 227 243 255 261 252 246 244 225 218 215 225 245 246 258 249 244 244 242 240 237 237 230 223 220 221 219 219 220 219 227 233 234 252 292 300 308 319 328 334 336 337 342 344
146 238 285 284 270 268 267 254 236 234 233 239 255 267 263 256 241 239 239 234 233 235 232 225 220 215 215 215 214 214 221 223 216 235 269 286 304 320 325 325 334 340 338 333
218 198 305 285 311 319 275 243 212 209 211 209 236 247 253 256 245 236 233 232 233 234 230 222 218 216 217 214 206 208 214 211 207 231 264 281 295 310 312 320 336 337 333 334
174 159 225 291 335 269 248 242 194 214 239 223 233 245 236 236 243 240 225 221 229 229 226 221 215 214 214 207 202 200 196 198 211 232 257 275 286 294 308 322 325 321 319 323
172 162 207 257 285 281 290 269 199 205 268 233 231 246 250 256 301 281 237 220 225 227 222 216 208 202 198 198 195 183 191 201 214 236 252 261 267 283 303 310 308 308 316 319
145 161 191 211 250 258 257 283 146 90 282 260 209 230 232 156 248 264 238 223 230 230 214 203 191 184 190 199 180 175 195 204 225 237 245 250 253 266 283 290 296 304 308 310
150 187 212 223 243 266 259 236 128 195 256 281 213 218 202 203 226 246 223 224 223 222 213 193 184 190 201 191 174 184 200 220 231 232 238 249 257 265 274 286 296 302 309 315
186 189 201 196 219 252 232 158 192 223 251 252 240 233 225 235 252 250 236 233 226 222 212 194 191 203 202 187 180 194 217 227 217 210 224 245 261 276 297 294 301 303 305 310
206 199 196 202 221 241 209 209 231 226 241 249 245 247 238 243 249 245 239 235 229 221 213 202 198 204 208 199 191 205 223 210 195 199 220 243 264 276 284 277 288 302 302 302
251 209 214 247 256 255 254 252 259 250 245 252 250 248 237 241 245 245 242 237 230 221 215 204 196 206 218 214 211 214 210 188 181 198 221 235 246 275 289 292 286 288 293 296
234 222 231 254 269 282 266 245 248 254 257 260 259 244 236 235 243 241 242 239 232 225 217 204 204 213 218 212 216 214 197 177 183 199 214 228 238 247 271 283 273 281 265 270
212 218 226 249 247 243 263 262 256 260 261 258 257 256 243 230 239 242 242 238 230 225 216 213 214 216 216 206 211 208 192 181 184 201 211 218 227 245 261 282 298 300 301 309
Height
1515 1520 1525 1524 1523 1523 1524 1526 1528 1527 1525 1527 1527 1525 1521 1519 1520 1520 1520 1521 1521 1520 1520 1519 1517 1515 1513 1511 1509 1506 1504 1501 1499 1497 1495 1493 1492 1491 1490 1489 1488 1487 1487 1486
1522 1525 1523 1522 1521 1522 1525 1529 1530 1529 1526 1527 1527 1525 1520 1517 1517 1517 1518 1519 1519 1519 1518 1517 1515 1514 1511 1509 1507 1504 1502 1500 1497 1495 1493 1491 1490 1488 1487 1486 1484 1483 1483 1482
1525 1526 1523 1523 1524 1526 1529 1530 1530 1531 1529 1527 1528 1525 1520 1517 1516 1517 1517 1517 1517 1517 1516 1515 1514 1512 1510 1508 1505 1503 1501 1498 1496 1494 1492 1490 1488 1486 1484 1482 1481 1480 1479 1478
1526 1525 1524 1525 1527 1527 1532 1529 1529 1530 1534 1536 1532 1537 1522 1517 1517 1516 1515 1515 1515 1515 1515 1514 1512 1511 1509 1507 1505 1502 1500 1497 1495 1492 1490 1487 1485 1483 1481 1480 1478 1477 1476 1475
1528 1527 1527 1529 1529 1529 1530 1529 1530 1531 1534 1538 1534 1538 1526 1518 1517 1514 1513 1513 1513 1514 1513 1512 1511 1510 1508 1506 1503 1501 1498 1496 1493 1491 1488 1486 1484 1482 1480 1478 1476 1474 1473 1471
1529 1528 1528 1529 1529 1529 1529 1531 1532 1536 1539 1541 1533 1537 1528 1518 1512 1509 1510 1510 1511 1511 1511 1510 1509 1508 1506 1504 1502 1500 1497 1495 1492 1489 1487 1484 1482 1480 1478 1475 1473 1471 1470 1468
1533 1531 1529 1529 1530 1530 1532 1538 1545 1543 1546 1539 1529 1531 1522 1508 1506 1505 1506 1507 1508 1509 1509 1508 1507 1506 1504 1503 1501 1498 1496 1493 1491 1488 1485 1483 1481 1478 1476 1474 1472 1469 1467 1465
1537 1538 1531 1530 1531 1532 1533 1536 1544 1543 1544 1540 1530 1527 1514 1505 1503 1503 1504 1505 1506 1507 1507 1506 1505 1504 1502 1501 1499 1496 1494 1492 1489 1487 1484 1482 1479 1477 1474 1472 1470 1468 1465 1464
1537 1537 1530 1529 1529 1530 1532 1536 1535 1542 1542 1543 1533 1523 1510 1504 1503 1503 1504 1504 1504 1504 1504 1504 1503 1502 1500 1498 1497 1495 1493 1490 1488 1485 1483 1480 1478 1475 1473 1471 1468 1466 1464 1462
1532 1536 1532 1530 1530 1530 1531 1533 1538 1541 1540 1538 1531 1524 1515 1504 1503 1503 1502 1502 1501 1502 1502 1501 1500 1499 1498 1497 1495 1493 1491 1489 1486 1484 1481 1479 1477 1474 1472 1469 1467 1464 1462 1460
1531 1536 1535 1532 1531 1531 1532 1533 1534 1540 1541 1540 1536 1521 1502 1499 1498 1499 1498 1498 1498 1499 1498 1498 1497 1497 1496 1494 1493 1491 1489 1487 1485 1483 1480 1477 1475 1473 1470 1468 1465 1463 1461 1459
1531 1537 1539 1533 1527 1525 1527 1528 1532 1538 1537 1537 1537 1520 1496 1495 1494 1494 1495 1495 1495 1495 1495 1495 1494 1494 1493 1492 1490 1489 1487 1485 1483 1481 1478 1476 1473 1471 1469 1466 1464 1461 1459 1457
1530 1536 1540 1533 1532 1528 1526 1525 1526 1529 1533 1537 1535 1516 1495 1493 1493 1493 1493 1493 1492 1492 1492 1491 1491 1490 1489 1489 1487 1486 1485 1483 1481 1479 1477 1474 1472 1469 1467 1464 1462 1459 1457 1454
1529 1534 1538 1533 1526 1525 1524 1522 1522 1526 1531 1530 1520 1506 1495 1493 1492 1491 1490 1489 1489 1489 1488 1488 1487 1487 1486 1486 1484 1483 1482 1481 1479 1476 1474 1472 1469 1467 1465 1462 1460 1457 1455 1452
1529 1533 1532 1528 1524 1523 1520 1517 1517 1518 1517 1517 1505 1500 1489 1488 1488 1487 1486 1485 1485 1485 1484 1484 1483 1483 1483 1482 1481 1480 1479 1478 1476 1474 1472 1470 1467 1465 1463 1460 1458 1455 1453 1450
1529 1532 1530 1526 1519 1518 1514 1507 1508 1507 1506 1502 1499 1492 1482 1482 1482 1482 1481 1481 1481 1480 1480 1480 1479 1479 1479 1478 1478 1477 1476 1475 1473 1471 1469 1467 1465 1463 1460 1458 1456 1453 1451 1448
1530 1531 1531 1530 1522 1517 1509 1495 1496 1497 1493 1493 1492 1483 1478 1480 1478 1477 1477 1477 1476 1476 1476 1475 1475 1475 1475 1474 1474 1473 1472 1471 1470 1468 1466 1464 1462 1460 1458 1456 1453 1451 1448 1446
1528 1530 1532 1531 1526 1519 1494 1485 1486 1488 1484 1482 1479 1475 1475 1474 1473 1473 1473 1473 1472 1472 1472 1472 1472 1471 1471 1471 1470 1470 1469 1468 1466 1465 1463 1461 1459 1457 1455 1453 1450 1448 1446 1443
1523 1527 1530 1531 1529 1513 1491 1483 1482 1484 1480 1473 1474 1472 1472 1472 1472 1470 1469 1469 1469 1469 1468 1468 1468 1468 1467 1467 1466 1466 1465 1464 1463 1461 1460 1458 1456 1454 1452 1450 1448 1445 1443 1441
1522 1524 1529 1529 1525 1511 1486 1480 1479 1482 1480 1469 1469 1469 1469 1471 1474 1468 1465 1465 1465 1465 1464 1464 1464 1463 1463 1463 1462 1462 1461 1460 1459 1458 1456 1455 1453 1451 1449 1447 1445 1443 1440 1438
1523 1525 1525 1524 1520 1502 1482 1479 1480 1486 1476 1468 1466 1466 1466 1466 1465 1463 1462 1462 1462 1461 1461 1460 1460 1459 1459 1459 1458 1457 1457 1456 1455 1454 1453 1451 1449 1448 1446 1444 1442 1440 1437 1435
1515 1519 1519 1517 1515 1498 1475 1477 1478 1472 1467 1465 1464 1464 1463 1462 1461 1460 1459 1458 1458 1457 1457 1456 1456 1455 1455 1455 1454 1453 1452 1452 1451 1450 1449 1447 1446 1444 1442 1441 1439 1437 1434 1432
1504 1500 1499 1497 1486 1472 1469 1468 1466 1465 1464 1462 1461 1460 1459 1458 1456 1455 1454 1454 1453 1453 1452 1452 1451 1451 1451 1450 1449 1449 1448 1448 1447 1446 1445 1444 1442 1441 1439 1437 1435 1433 1431 1428
1493 1489 1490 1486 1472 1467 1465 1464 1463 1462 1460 1459 1458 1456 1455 1453 1452 1451 1450 1449 1448 1448 1447 1447 1446 1446 1445 1445 1445 1444 1444 1443 1442 1442 1441 1440 1438 1437 1435 1434 1432 1430 1427 1425
1486 1484 1483 1477 1466 1462 1458 1457 1457 1457 1456 1454 1453 1451 1450 1448 1447 1446 1444 1444 1443 1442 1442 1441 1441 1440 1440 1440 1440 1440 1439 1439 1438 1437 1437 1436 1434 1433 1432 1430 1428 1426 1424 1422
1476 1475 1474 1466 1459 1458 1454 1454 1453 1452 1450 1449 1447 1445 1444 1443 1442 1441 1439 1439 1438 1437 1436 1436 1435 1435 1435 1435 1435 1435 1435 1434 1434 1433 1432 1431 1430 1429 1428 1426 1425 1423 1421 1419